Location: Asheville, NC
(35.6000°N, 82.5500°W)
Time: 17:31:20
(UTC-04:00)

Vanguard 1 Rocket - Pass Details

Date: 12 December 2017
Orbit: 652 x 4225 km, 34.3° (Epoch: 20 July)

Event Time Altitude Azimuth Distance (km) Brightness Sun altitude
Rises 20:52:50 0° 276° (W) 5,581 12.2 -42.9°
Reaches altitude 10° 20:55:46 10° 275° (W) 4,935 11.7 -43.5°
Maximum altitude 21:11:52 83° 191° (S) 3,527 10.0 -46.7°
Enters shadow 21:13:54 77° 137° (SE) 3,679 10.0 -47.1°
